Weather reports worldwide

Advertisment
Larissa, Greece (16648): temperature & dewpoint: 11.07.2019 10:00:00 - 17.07.2019 10:00:00 (EEST)Larissa, Greece (16648): wind speed: 11.07.2019 10:00:00 - 17.07.2019 10:00:00 (EEST)Larissa, Greece (16648): wind direction: 11.07.2019 10:00:00 - 17.07.2019 10:00:00 (EEST)Larissa, Greece (16648): reduced air pressure: 11.07.2019 10:00:00 - 17.07.2019 10:00:00 (EEST)Larissa, Greece (16648): visibility: 11.07.2019 10:00:00 - 17.07.2019 10:00:00 (EEST)
Date & Time tt [°C] td [°C] ff [km/h] ff [kn] dd ppp [hPa] vv [km]
17.07.2019 10:00:00 20,0 18,0 0 0 N - 10
17.07.2019 09:00:00 18,2 17,3 0 0 N 1009,8 10
17.07.2019 08:00:00 18,0 17,0 9 5 S - 10
17.07.2019 07:00:00 18,0 17,0 0 0 N - 10
17.07.2019 06:00:00 17,6 17,0 8 4 S 1008,6 10
17.07.2019 05:00:00 18,0 17,0 5 3 - - 10
17.07.2019 04:00:00 18,0 18,0 0 0 N - 10
17.07.2019 03:00:00 18,6 17,6 0 0 N 1008,5 10
17.07.2019 02:00:00 19,0 18,0 9 5 W - 10
17.07.2019 01:00:00 19,0 18,0 11 6 W - 10
17.07.2019 00:00:00 18,6 18,0 11 6 W 1009,0 10
16.07.2019 23:00:00 19,0 18,0 9 5 W - 10
16.07.2019 22:00:00 19,0 18,0 11 6 WSW - 10
16.07.2019 21:00:00 19,4 17,8 8 4 W 1008,2 10
16.07.2019 20:00:00 20,0 18,0 0 0 N - 10
16.07.2019 19:00:00 19,0 18,0 0 0 N - 10
16.07.2019 18:00:00 19,4 18,0 0 0 N 1008,4 8
16.07.2019 17:00:00 20,0 18,0 0 0 N - 8
16.07.2019 16:00:00 20,0 19,0 8 4 WNW - 7
16.07.2019 15:00:00 19,4 18,4 8 4 N 1008,1 7
16.07.2019 14:00:00 20,0 19,0 5 3 - - 8
16.07.2019 13:00:00 19,0 19,0 9 5 SSW - 6
16.07.2019 12:00:00 19,0 18,6 5 3 - 1008,8 6
16.07.2019 11:00:00 24,0 16,0 22 12 E - 10
16.07.2019 10:00:00 - - - - - - -
16.07.2019 09:00:00 22,6 18,2 0 0 N 1008,2 10
16.07.2019 08:00:00 21,0 18,0 0 0 N - 10
16.07.2019 07:00:00 21,0 18,0 0 0 N - 10
16.07.2019 06:00:00 21,0 17,8 0 0 N 1008,0 10
16.07.2019 05:00:00 22,0 18,0 0 0 N - 10
16.07.2019 04:00:00 21,0 18,0 0 0 N - 10
16.07.2019 03:00:00 21,4 17,4 0 0 N 1008,6 10
16.07.2019 02:00:00 22,0 17,0 0 0 N - 10
16.07.2019 01:00:00 23,0 17,0 0 0 N - 10
16.07.2019 00:00:00 23,0 18,0 0 0 N 1009,1 10
15.07.2019 23:00:00 23,0 15,0 0 0 N - 10
15.07.2019 22:00:00 24,0 13,0 0 0 N - 10
15.07.2019 21:00:00 24,4 11,6 11 6 E 1007,8 10
15.07.2019 20:00:00 25,0 11,0 15 8 E - 10
15.07.2019 19:00:00 26,0 10,0 18 10 ENE - 10
15.07.2019 18:00:00 27,4 10,9 22 12 ENE 1007,3 10
15.07.2019 17:00:00 29,0 12,0 22 12 E - 10
15.07.2019 16:00:00 28,0 12,0 24 13 ENE - 10
15.07.2019 15:00:00 28,2 13,1 22 12 ENE 1008,0 10
15.07.2019 14:00:00 28,0 13,0 18 10 E - 10
15.07.2019 13:00:00 28,0 13,0 8 4 ESE - 10
15.07.2019 12:00:00 27,0 13,2 8 4 E 1008,6 10
15.07.2019 11:00:00 25,0 13,0 0 0 N - 10
15.07.2019 10:00:00 24,0 14,0 5 3 - - 10
15.07.2019 09:00:00 22,8 14,2 8 4 E 1009,1 10
15.07.2019 08:00:00 21,0 14,0 8 4 ENE - 10
15.07.2019 07:00:00 19,0 15,0 0 0 N - 10
15.07.2019 06:00:00 19,0 14,2 0 0 N 1008,3 10
15.07.2019 05:00:00 20,0 14,0 0 0 N - 10
15.07.2019 04:00:00 - - - - - - -
15.07.2019 03:00:00 22,2 14,0 0 0 N 1008,0 10
15.07.2019 02:00:00 23,0 16,0 0 0 N - 10
15.07.2019 01:00:00 23,0 15,0 0 0 N - 10
15.07.2019 00:00:00 24,0 13,7 0 0 N 1007,8 10
14.07.2019 23:00:00 24,0 15,0 0 0 N - 10
14.07.2019 22:00:00 25,0 15,0 8 4 E - 10
14.07.2019 21:00:00 25,0 14,6 13 7 E 1006,4 10
14.07.2019 20:00:00 26,0 14,0 15 8 ENE - 10
14.07.2019 19:00:00 27,0 15,0 13 7 E - 10
14.07.2019 18:00:00 27,0 14,6 21 11 ENE 1004,9 10
14.07.2019 17:00:00 28,0 15,0 24 13 E - 10
14.07.2019 16:00:00 28,0 15,0 11 6 E - 10
14.07.2019 15:00:00 28,2 15,4 15 8 E 1004,7 10
14.07.2019 14:00:00 28,0 14,0 9 5 ENE - 10
14.07.2019 13:00:00 27,0 15,0 13 7 NE - 10
14.07.2019 12:00:00 26,6 14,3 18 10 NNE 1005,5 10
14.07.2019 11:00:00 26,0 15,0 15 8 N - 10
14.07.2019 10:00:00 25,0 18,0 8 4 ENE - 10
14.07.2019 09:00:00 24,2 17,2 0 0 N 1005,0 10
14.07.2019 08:00:00 22,0 18,0 0 0 N - 10
14.07.2019 07:00:00 21,0 19,0 0 0 N - 10
14.07.2019 06:00:00 21,6 17,8 0 0 N 1005,0 10
14.07.2019 05:00:00 21,0 18,0 0 0 N - 10
14.07.2019 04:00:00 21,0 18,0 0 0 N - 10
14.07.2019 03:00:00 21,4 17,8 0 0 N 1005,6 10
14.07.2019 02:00:00 21,0 18,0 18 10 ENE - 10
14.07.2019 01:00:00 22,0 19,0 18 10 ENE - 10
14.07.2019 00:00:00 22,8 17,0 0 0 N 1006,7 10
13.07.2019 23:00:00 24,0 19,0 13 7 E - 10
13.07.2019 22:00:00 24,0 19,0 18 10 E - 10
13.07.2019 21:00:00 24,8 19,1 24 13 E 1005,9 10
13.07.2019 20:00:00 27,0 18,0 22 12 E - 10
13.07.2019 19:00:00 28,0 18,0 21 11 E - 10
13.07.2019 18:00:00 29,8 15,6 18 10 E 1007,0 10
13.07.2019 17:00:00 31,0 13,0 0 0 N - 10
13.07.2019 16:00:00 31,0 15,0 0 0 N - 10
13.07.2019 15:00:00 29,4 14,6 0 0 N 1009,2 10
13.07.2019 14:00:00 29,0 16,0 8 4 E - 10
13.07.2019 13:00:00 27,0 17,0 0 0 N - 10
13.07.2019 12:00:00 25,6 17,6 0 0 N 1011,0 10
13.07.2019 11:00:00 24,0 17,0 0 0 N - 10
13.07.2019 10:00:00 - - - - - - -
13.07.2019 09:00:00 20,4 18,4 0 0 N 1012,3 10
13.07.2019 08:00:00 19,0 18,0 0 0 N - 10
13.07.2019 07:00:00 18,0 17,0 0 0 N - 10
13.07.2019 06:00:00 18,4 17,8 0 0 N 1011,7 10
13.07.2019 05:00:00 18,0 18,0 0 0 N - 10
13.07.2019 04:00:00 19,0 18,0 0 0 N - 10
13.07.2019 03:00:00 19,2 17,9 0 0 N 1012,2 10
13.07.2019 02:00:00 19,0 18,0 0 0 N - 10
13.07.2019 01:00:00 19,0 18,0 0 0 N - 10
13.07.2019 00:00:00 18,4 18,2 9 5 SSE 1012,4 10
12.07.2019 23:00:00 18,0 18,0 0 0 N - 10
12.07.2019 22:00:00 21,0 16,0 18 10 ENE - 10
12.07.2019 21:00:00 25,0 11,4 21 11 ENE 1009,3 10
12.07.2019 20:00:00 26,0 11,0 24 13 E - 10
12.07.2019 19:00:00 28,0 12,0 24 13 ENE - 10
12.07.2019 18:00:00 29,4 12,3 21 11 E 1009,1 10
12.07.2019 17:00:00 30,0 13,0 15 8 ENE - 10
12.07.2019 16:00:00 31,0 12,0 9 5 ENE - 10
12.07.2019 15:00:00 29,6 11,8 0 0 N 1010,6 10
12.07.2019 14:00:00 29,0 11,0 0 0 N - 10
12.07.2019 13:00:00 28,0 11,0 0 0 N - 10
12.07.2019 12:00:00 27,0 11,8 0 0 N 1012,4 10
12.07.2019 11:00:00 26,0 14,0 0 0 N - 10
12.07.2019 10:00:00 24,0 15,0 0 0 N - 10
12.07.2019 09:00:00 21,8 15,6 0 0 N 1012,9 10
12.07.2019 08:00:00 20,0 15,0 0 0 N - 10
12.07.2019 07:00:00 18,0 16,0 0 0 N - 10
12.07.2019 06:00:00 17,0 15,0 0 0 N 1011,8 10
12.07.2019 05:00:00 18,0 15,0 0 0 N - 10
12.07.2019 04:00:00 19,0 15,0 0 0 N - 10
12.07.2019 03:00:00 19,6 14,4 0 0 N 1011,8 10
12.07.2019 02:00:00 19,0 15,0 0 0 N - 10
12.07.2019 01:00:00 20,0 16,0 0 0 N - 10
12.07.2019 00:00:00 19,6 15,0 0 0 N 1011,8 10
11.07.2019 23:00:00 19,0 15,0 0 0 N - 10
11.07.2019 22:00:00 21,0 13,0 11 6 ENE - 10
11.07.2019 21:00:00 22,6 12,8 11 6 ENE 1010,6 10
11.07.2019 20:00:00 24,0 13,0 21 11 ENE - 10
11.07.2019 19:00:00 26,0 12,0 22 12 ENE - 10
11.07.2019 18:00:00 26,4 12,4 24 13 E 1009,5 10
11.07.2019 17:00:00 27,0 13,0 21 11 E - 10
11.07.2019 16:00:00 28,0 12,0 16 9 E - 10
11.07.2019 15:00:00 27,6 11,6 11 6 WNW 1009,8 10
11.07.2019 14:00:00 26,0 10,0 15 8 WNW - 10
11.07.2019 13:00:00 26,0 11,0 11 6 WNW - 10
11.07.2019 12:00:00 25,6 8,2 22 12 N 1010,2 10
11.07.2019 11:00:00 23,0 9,0 22 12 NNE - 10
11.07.2019 10:00:00 24,0 11,0 22 12 NNE - 10

tt = temperature
td = dewpoint
ff = wind speed
dd = wind direction
ppp = reduced air pressure
vv = visibility

Next stations